sat.trackr.live / text

‹ back to catalog

STARLINK-35454

NORAD 66236 · 2025-245C

PAYLOAD ACTIVE UNKNOWN

§ Identity

Operator
Country
US
Launch date
2025-10-29
Launch site
AFETR
Launch vehicle
Mass (kg)
RCS (m²)

Purposes: comms

External: N2YO · Heavens-Above · Gunter

§ Orbital elements

Epoch: 2026-05-24T18:42:24.037632Z

Period
94.11 min
Inclination
53.1574°
Eccentricity
0.0000747
Mean motion
15.30176428 rev/d
Perigee alt
474.8 km
Apogee alt
475.8 km
Semi-major
6,853.4 km
B*
-1.7793e-4
RAAN
290.6515°
Arg perigee
53.1072°
Mean anomaly
306.9997°
Rev number
3,274

§ Raw data

STARLINK-354541 66236U 25245C   26144.77944488 -.00005621  00000+0 -17793-3 0  99942 66236  53.1574 290.6515 0000747  53.1072 306.9997 15.30176428 32740

JSON: /api/v1/satellites/66236 · /tle

For live sub-satellite position, see the globe view (requires WebGL).

§ Visibility from observer

Set your observer location to see the next 7 days of passes ≥ 10°. The values pass through the URL so the page stays shareable.

No JS? Fill the form by hand. The geolocation button needs JavaScript.